Lapse_Rate
3.8 4.7 5.9 6.2 5.9 5.9 5.9 5.7 5.5 5.4 5.7 5.7 6.0 5.9 6.4 6.1 6.2 6.1 6.1 5.9 5.9 6.2 6.4 6.4 6.4 6.7 6.7 6.5 6.4 6.1 6.0 6.2 6.6 6.7 6.9 6.8 6.7 6.6 6.5 6.5 6.0 6.5 6.2
3.6 4.5 5.7 5.9 5.9 5.6 5.6 5.4 5.2 5.2 5.5 5.6 6.2 6.0 6.1 6.1 6.2 6.1 6.0 5.7 5.7 6.0 6.2 6.3 6.3 6.3 6.4 6.6 6.5 6.2 6.3 6.4 6.6 6.9 6.9 6.7 6.9 6.7 6.5 6.5 5.9 5.9 6.2
3.7 4.6 5.2 5.4 5.7 5.3 5.3 5.3 5.2 5.1 5.2 5.3 5.5 5.9 5.9 6.6 6.2 5.9 6.2 6.0 6.0 6.6 6.3 6.2 6.0 6.1 6.3 6.4 6.5 6.4 6.3 6.4 6.7 6.4 6.0 5.5 5.9 6.4 6.7 6.5 6.2 6.1 6.1
3.5 4.0 4.5 5.1 5.4 5.2 5.0 5.2 5.3 5.2 5.2 5.1 5.4 5.5 5.7 6.0 6.8 6.6 5.9 6.2 6.2 5.9 5.9 5.9 5.9 6.0 6.1 6.5 6.3 6.2 6.2 6.2 6.3 5.7 5.3 5.5 6.2 6.2 6.4 6.3 6.0 6.2 6.2
3.3 3.5 4.2 5.0 5.1 5.0 5.0 5.2 5.4 5.4 5.4 5.3 5.4 5.5 5.9 6.2 6.2 6.3 6.7 6.1 6.2 6.1 5.7 5.6 5.9 5.8 5.9 5.9 5.8 6.1 6.1 6.1 5.8 4.9 4.9 4.8 5.2 6.0 6.0 6.2 6.0 6.0 5.6
2.3 3.2 4.7 5.1 5.1 4.9 5.2 5.4 5.7 5.7 5.6 5.6 5.7 5.7 6.1 6.7 6.5 6.4 7.1 6.6 6.5 6.1 5.7 5.5 5.4 5.8 5.9 5.9 5.8 5.9 6.1 5.7 5.0 4.4 4.5 4.7 5.1 5.9 5.9 6.2 6.2 6.2 5.8
2.4 3.5 4.5 5.1 5.2 5.3 5.5 5.5 5.7 5.9 6.0 5.9 5.8 5.8 6.1 6.5 6.7 6.7 7.1 6.6 7.0 6.9 6.2 5.4 5.4 5.7 5.9 6.2 6.3 6.3 6.2 5.9 4.9 4.3 3.6 3.9 4.4 5.7 5.9 6.0 6.0 6.1 6.2
2.6 3.2 4.0 5.0 5.3 5.4 5.6 5.7 5.8 5.9 6.1 6.2 6.2 6.0 5.9 6.3 6.8 6.9 6.9 6.6 6.5 6.7 7.0 6.4 5.5 5.5 5.9 6.2 6.2 6.0 6.2 6.2 4.8 4.2 3.7 3.8 4.5 4.9 6.2 6.4 5.6 5.5 5.9
3.5 3.0 3.6 4.4 5.1 5.4 5.6 5.6 5.7 5.9 6.0 6.2 6.3 6.1 5.8 6.0 6.4 6.7 7.2 6.7 6.8 7.2 6.9 6.9 6.4 5.5 5.9 6.2 6.2 6.1 6.2 6.5 5.2 4.7 4.7 4.4 4.7 5.1 6.1 6.0 5.6 5.4 5.7
2.9 3.0 3.0 3.6 4.4 4.7 4.9 5.6 5.7 5.8 6.1 6.3 6.3 6.2 6.0 6.2 6.3 6.7 6.3 6.5 6.7 6.9 6.9 6.8 6.9 6.7 6.0 6.2 6.4 6.1 6.1 6.5 5.4 4.9 4.7 4.1 5.2 5.6 6.0 5.8 5.5 5.3 5.2
3.0 3.0 2.7 3.0 3.0 3.7 4.2 4.8 5.6 5.8 6.1 6.4 6.4 6.6 6.9 4.9 4.9 5.0 5.6 6.0 6.8 6.7 6.8 6.8 6.7 6.7 6.6 6.4 6.2 5.9 6.1 5.2 4.5 4.4 4.3 4.3 4.8 6.0 6.2 6.0 5.7 5.4 5.4
2.7 2.1 2.2 2.3 2.3 2.8 3.9 4.0 4.2 4.7 5.2 5.3 5.5 5.9 4.5 4.1 4.5 5.0 5.6 6.5 6.8 6.7 6.7 6.4 6.9 6.7 6.7 5.5 5.0 6.1 5.1 4.4 3.8 3.8 4.3 4.2 4.9 6.1 6.5 6.6 5.9 5.7 5.7
2.5 2.5 2.1 1.9 2.1 1.9 2.2 3.0 3.0 3.6 4.0 4.4 5.2 5.2 4.7 4.3 3.8 3.8 4.1 4.5 4.2 5.0 5.1 5.5 5.6 5.2 4.8 4.5 4.2 4.0 4.2 4.0 3.8 3.8 4.9 4.4 5.1 6.1 6.7 6.6 6.2 5.8 5.9
2.0 2.4 2.3 1.9 1.8 1.6 2.0 2.4 2.9 2.9 3.5 3.9 4.6 4.7 3.8 3.3 3.0 3.0 3.1 3.8 4.0 4.3 4.3 4.3 4.5 4.7 4.3 4.0 4.1 4.3 4.5 4.2 3.9 3.8 4.2 4.7 5.2 5.9 6.4 6.6 6.4 6.4 6.4
2.4 2.6 2.4 1.5 1.6 1.6 2.1 2.7 2.5 2.8 3.5 4.0 4.2 4.5 4.5 3.1 3.0 3.3 3.5 3.6 3.5 3.8 3.9 4.1 4.0 4.3 4.1 4.0 4.2 4.4 4.6 4.5 4.3 3.9 4.2 4.9 5.2 5.9 6.4 6.5 6.1 6.4 6.7
2.5 2.6 1.6 1.7 2.0 2.2 2.5 2.5 2.5 2.9 3.7 3.9 4.1 4.1 4.0 3.3 2.7 3.1 3.3 3.5 3.3 3.4 3.5 3.4 3.8 3.9 3.8 4.0 4.0 4.4 4.5 4.7 4.4 4.4 4.2 4.3 4.7 5.9 6.1 6.1 6.2 6.2 6.5
2.0 2.2 1.9 2.2 2.3 2.6 2.5 2.8 2.8 3.2 3.2 3.0 3.7 3.9 3.6 3.0 3.0 3.5 3.1 2.5 2.6 2.9 3.0 2.8 3.3 3.3 3.6 3.8 4.1 4.5 4.7 4.4 4.8 4.8 4.6 3.9 4.1 4.8 5.6 6.1 6.5 6.3 6.1
2.0 2.4 2.2 4.0 3.2 2.8 2.3 2.8 3.1 3.2 3.2 3.4 3.2 3.7 3.6 3.5 3.6 3.4 2.5 2.3 2.7 2.4 3.0 2.9 3.0 3.3 3.5 3.7 4.0 4.0 4.6 4.6 4.8 4.6 4.1 3.9 3.8 4.9 5.1 6.1 6.4 6.7 6.3
2.2 2.5 3.0 2.7 3.2 3.3 2.5 2.9 3.2 3.7 3.4 3.6 3.4 3.2 3.2 3.4 3.6 2.9 3.0 2.7 2.5 2.3 2.2 2.9 3.3 3.1 3.7 3.9 3.6 3.5 3.8 4.2 4.3 5.3 4.6 4.3 3.9 3.9 4.3 5.0 5.9 6.1 6.5
2.0 2.3 2.8 3.2 2.7 2.9 3.0 3.0 3.1 3.3 3.3 3.9 3.4 3.2 2.9 3.1 3.4 3.0 3.0 3.0 3.2 2.5 2.7 2.8 3.3 3.2 3.7 4.0 3.7 4.8 3.3 3.0 3.2 3.7 4.1 4.8 4.1 3.9 3.9 4.0 4.4 5.6 5.4
2.5 1.5 2.3 2.1 2.3 2.4 2.8 3.2 3.3 3.6 3.5 3.4 3.7 3.9 3.6 3.2 3.2 2.8 3.0 3.0 3.4 3.3 3.5 3.3 3.1 3.1 3.7 3.4 3.3 3.5 2.9 2.8 2.6 2.9 3.3 3.4 3.9 4.4 3.7 3.2 3.1 3.5 4.5
2.7 2.4 1.8 2.0 2.4 2.6 3.0 2.9 3.4 3.2 3.5 3.5 3.6 3.6 3.8 3.6 3.3 3.1 3.1 3.2 3.2 3.6 3.7 3.3 3.5 3.5 3.5 3.4 4.5 3.0 3.6 3.4 3.2 3.3 2.5 3.4 3.7 3.7 4.1 3.9 3.4 3.3 3.2
2.4 2.1 2.3 1.1 2.3 2.7 3.1 2.7 3.0 2.7 2.7 3.1 3.4 3.6 3.6 3.7 3.4 3.3 3.3 3.3 3.5 3.7 4.1 3.8 3.4 3.6 4.4 3.5 3.3 4.5 4.5 4.8 2.6 2.3 2.5 2.6 3.0 3.1 3.2 3.2 3.0 2.9 2.9
2.8 2.5 2.5 0.9 1.6 2.3 2.3 2.7 3.6 3.2 3.5 2.6 3.2 3.2 3.4 3.8 3.2 3.8 3.3 3.5 3.3 3.6 3.8 3.5 4.5 3.7 3.7 4.5 3.3 3.6 3.4 4.0 4.9 4.1 2.8 2.5 2.4 2.9 2.6 2.3 2.7 2.6 2.9
3.3 2.6 2.2 2.1 1.9 2.0 3.1 3.1 3.2 3.1 2.1 2.6 2.8 3.0 3.1 2.5 3.0 3.7 3.2 4.2 3.4 3.0 3.7 3.8 4.2 3.9 4.0 4.2 4.3 3.7 3.5 3.3 2.9 3.6 4.3 3.6 2.8 2.4 2.1 2.0 2.0 2.0 2.3
2.1 2.8 3.0 2.3 1.8 2.5 3.0 2.0 2.3 2.7 2.9 2.9 2.6 3.0 3.5 3.2 2.7 3.4 2.9 3.0 2.7 2.9 2.7 2.7 3.1 3.9 3.9 4.0 4.0 4.1 4.4 4.4 4.1 4.1 3.9 4.0 3.6 2.9 2.0 2.0 1.9 1.7 1.7
Wind_Speed
7 12 16 16 16 17 17 17 17 18 17 17 17 16 15 15 14 13 11 9 8 9 10 10 11 14 15 16 14 15 15 14 14 14 13 13 13 15 15 14 11 14 13
12 16 17 16 16 16 15 16 15 16 15 15 16 16 14 13 13 12 11 10 9 10 10 10 10 12 14 15 15 15 14 14 14 13 13 12 13 13 13 12 14 13 13
14 17 17 16 15 15 14 14 14 14 14 14 13 12 12 11 11 10 10 10 11 13 11 11 11 11 12 15 14 14 14 13 12 13 12 11 10 11 12 11 12 13 12
16 15 15 15 15 15 14 13 12 12 13 12 11 10 10 9 8 9 9 9 11 10 11 10 11 11 11 13 14 13 12 12 11 10 9 7 9 10 10 10 11 11 10
13 15 16 17 16 15 14 13 12 11 11 11 9 8 7 7 8 7 8 8 9 10 11 11 11 12 12 12 12 13 13 11 11 8 7 7 8 9 8 7 10 10 11
10 15 17 18 16 15 14 14 12 11 10 9 8 6 5 6 6 8 7 7 7 9 10 11 10 11 12 11 13 12 12 13 9 6 5 5 6 7 8 7 8 8 10
9 15 17 17 16 16 14 13 13 11 10 9 8 6 5 5 6 7 7 7 5 6 7 10 10 9 9 9 10 9 10 7 6 5 6 3 3 4 7 7 6 7 6
10 12 15 18 17 15 14 13 13 11 10 8 7 6 5 4 4 7 6 7 6 6 5 7 9 9 8 7 7 7 6 7 6 5 7 7 7 6 8 9 7 8 6
10 8 11 14 17 16 14 13 12 12 11 9 7 6 5 4 4 4 4 5 6 6 6 5 7 8 8 7 6 5 4 4 4 4 5 9 12 10 10 9 8 8 5
5 5 6 10 13 14 13 14 12 12 10 8 7 6 5 5 5 4 3 4 5 6 6 6 6 6 6 7 7 7 7 7 5 5 5 10 15 13 11 10 10 9 8
5 5 5 6 8 11 11 11 12 11 9 7 6 5 5 3 1 1 3 6 7 7 7 7 6 6 6 7 8 9 8 6 6 6 5 8 16 16 13 12 11 11 11
10 7 6 7 7 8 7 8 6 7 5 4 3 6 4 3 3 2 5 7 9 8 8 6 7 7 7 5 7 8 5 7 7 8 8 9 14 17 16 15 16 15 15
10 7 7 5 9 8 5 6 6 6 4 5 4 7 4 4 5 5 5 4 3 2 4 2 4 4 6 7 7 7 7 7 8 10 10 11 13 17 17 18 18 18 18
10 9 7 6 5 7 6 6 8 4 5 7 5 11 5 5 4 3 4 6 5 3 4 5 5 7 7 8 8 8 9 7 9 9 12 12 15 19 20 22 17 19 18
9 9 9 6 6 5 5 5 6 6 7 9 8 9 11 6 4 3 5 6 6 5 6 5 5 6 6 7 8 9 10 9 10 10 11 15 16 17 18 21 20 19 19
8 9 6 7 5 7 5 6 5 6 7 8 11 11 15 9 6 5 4 4 6 8 5 6 4 3 4 7 6 9 10 10 11 12 14 13 16 18 20 22 23 22 21
8 5 7 6 7 6 6 7 7 8 9 8 10 12 12 10 9 6 4 3 4 4 5 6 4 5 5 6 6 7 9 10 10 11 12 11 14 17 18 22 22 23 21
5 8 6 8 8 7 6 7 7 9 9 10 11 12 15 12 11 8 4 3 6 6 6 2 2 3 3 4 3 4 4 7 9 10 11 10 12 11 11 17 22 23 22
7 7 7 8 8 9 7 7 6 7 7 9 9 11 12 12 11 8 6 6 10 5 4 3 2 4 3 3 4 3 4 4 6 9 8 9 13 11 10 14 17 21 21
8 7 7 7 7 6 2 0 1 3 4 6 7 9 9 11 11 9 6 6 8 4 3 3 4 3 3 3 3 4 4 5 4 5 5 8 9 11 12 13 12 14 20
10 9 10 8 7 4 2 2 1 3 3 3 5 9 10 11 11 9 6 5 6 4 4 4 2 3 2 1 2 2 2 4 5 5 4 4 5 10 9 11 12 13 13
9 9 7 7 5 4 2 1 2 2 2 3 3 6 9 11 12 9 6 6 5 3 4 4 4 1 1 2 1 0 3 2 2 4 3 4 6 5 7 8 11 12 12
6 6 5 4 4 2 2 1 1 1 1 2 2 3 4 10 11 13 10 5 4 3 3 3 3 5 2 2 4 1 1 2 2 1 3 4 5 3 4 7 8 10 11
2 7 6 3 4 4 5 3 4 3 3 2 2 3 4 5 9 11 9 8 5 3 4 4 4 3 3 3 2 3 3 2 1 4 1 3 4 5 6 5 7 9 10
6 8 10 5 4 4 5 3 2 3 2 2 3 6 5 5 9 9 7 7 5 4 4 5 4 5 3 2 2 1 1 1 2 2 3 3 2 3 5 5 6 8 11
5 3 3 7 5 7 5 6 6 6 5 4 3 4 5 4 4 8 7 6 5 4 4 6 6 5 5 4 3 4 3 3 3 3 3 2 3 3 2 3 6 6 11
Wind_Direction
161 152 144 132 124 118 113 108 105 103 103 105 104 98 98 105 109 114 114 108 102 100 100 100 92 90 96 104 104 103 101 100 104 104 103 101 102 99 95 92 89 92 90
142 149 148 140 133 125 120 112 108 104 101 96 96 103 105 104 109 115 115 108 105 125 123 114 104 98 101 103 105 110 111 111 111 108 107 102 97 98 98 99 94 96 97
141 148 148 145 139 132 126 119 114 110 107 101 98 99 98 105 116 112 104 111 104 122 111 113 115 110 113 111 113 115 116 114 112 107 99 98 92 101 98 100 97 100 97
139 146 148 150 145 140 135 129 123 118 111 104 101 100 102 101 100 112 112 107 109 114 113 113 117 118 118 117 118 118 112 104 105 95 106 99 98 105 108 107 105 105 105
136 143 152 154 152 148 143 140 135 129 121 115 111 107 106 114 126 120 129 126 121 117 122 123 124 125 125 122 117 122 119 115 101 86 99 99 106 117 119 114 113 115 110
129 146 160 159 158 156 153 151 146 143 138 134 127 115 105 97 120 133 121 123 121 135 125 121 117 126 136 130 131 132 129 107 105 84 89 87 119 136 130 129 130 126 131
137 153 162 163 165 165 164 163 156 156 153 150 143 135 120 96 122 122 130 122 118 127 136 131 127 127 132 137 140 136 126 134 143 158 151 146 171 166 161 160 149 146 148
144 158 163 168 171 175 173 173 165 169 167 166 159 152 139 112 91 122 132 139 136 138 141 145 138 139 140 140 142 149 157 152 143 143 167 178 196 206 183 174 175 164 161
147 151 170 173 178 183 186 181 181 181 182 178 173 169 170 159 138 130 142 160 155 153 149 147 148 150 154 165 175 178 184 196 173 193 202 204 201 200 196 204 185 181 185
129 159 173 180 190 185 196 196 193 193 196 191 185 191 197 197 188 177 162 194 190 180 173 176 174 168 173 185 198 205 215 226 218 226 239 218 207 201 207 192 196 199 200
149 165 171 177 200 186 198 211 204 202 203 203 207 222 233 189 83 354 199 201 207 202 193 197 199 198 204 213 221 229 229 227 238 235 233 214 208 207 211 206 211 214 212
181 182 180 175 196 184 190 213 214 210 219 221 202 206 265 177 188 288 260 229 208 210 212 209 220 221 225 226 238 239 247 230 228 242 240 226 208 213 216 214 207 211 217
184 191 185 180 190 185 190 203 228 215 221 238 177 252 234 211 243 278 260 256 279 233 221 228 239 237 244 238 241 236 228 235 236 235 236 223 208 218 227 226 216 210 216
186 190 184 184 187 206 196 202 223 207 222 247 200 224 209 215 208 253 256 249 250 250 244 244 251 246 254 249 238 241 237 241 244 244 243 231 224 228 236 228 229 226 225
194 198 196 175 193 194 210 207 219 212 219 235 240 234 239 196 222 224 225 220 228 230 227 239 245 244 254 248 240 231 241 231 234 233 239 237 238 237 234 228 228 228 231
196 205 187 182 188 186 213 209 216 213 236 237 249 241 246 205 201 212 216 218 222 226 224 243 240 230 253 244 245 239 240 240 231 233 236 241 241 239 234 226 228 227 227
200 188 184 182 175 197 210 222 216 212 214 237 246 244 249 225 200 217 190 262 235 242 222 224 238 261 264 251 244 243 236 238 236 234 236 232 236 243 247 227 229 227 226
171 189 178 195 202 208 214 222 221 214 222 236 244 240 242 227 207 211 171 231 254 234 241 229 216 250 250 240 241 230 234 249 255 246 245 233 229 234 246 240 233 228 226
195 178 190 188 203 216 217 218 234 233 228 239 249 249 239 225 218 202 192 201 239 247 232 248 262 228 223 250 254 257 246 246 250 248 251 245 236 233 229 238 239 234 230
178 196 198 208 192 192 233 309 336 286 262 255 247 244 234 223 218 205 212 221 225 218 225 215 240 227 239 260 264 256 232 235 236 238 252 257 232 238 226 223 231 239 232
170 178 201 182 193 158 153 169 201 236 257 262 247 245 228 221 220 214 225 217 224 224 219 195 211 233 285 231 311 256 247 228 241 247 245 275 262 239 231 223 216 219 230
176 177 191 189 175 196 172 190 179 178 232 247 261 265 245 225 219 215 223 233 216 217 223 193 197 200 246 205 249 7 337 319 274 228 202 240 254 262 255 235 228 224 218
190 179 176 142 135 187 180 117 44 17 332 297 278 269 259 240 225 213 216 219 236 214 227 236 193 199 212 239 228 207 314 273 315 238 220 239 240 244 250 257 237 235 230
148 85 90 107 161 177 171 196 204 228 250 278 292 305 300 267 246 233 213 208 222 216 226 225 223 212 183 222 228 230 235 217 281 327 278 260 248 242 234 234 240 239 231
83 156 208 173 162 114 152 179 234 278 300 309 309 311 314 316 300 271 235 234 212 216 230 233 219 214 208 194 215 186 223 252 227 210 287 316 282 235 233 221 219 230 236
43 137 196 142 189 193 200 188 186 213 247 268 277 293 292 276 273 280 249 241 233 225 224 236 250 224 216 220 210 210 198 201 206 200 235 256 282 305 271 232 225 220 220